Weather History for Meadow Lake, CO

Change the Weather History Date:

Thursday, January 17, 2013

  Actual Average (KCOS) Record (KCOS)
Temperature  
Mean Temperature 30 °F 31 °F  
Max Temperature 44 °F 43 °F 64 °F (1974)
Min Temperature 16 °F 18 °F -22 °F (1930)
Degree Days  
Heating Degree Days 35 34  
Month to date heating degree days 588  
Since 1 July heating degree days 3160  
Cooling Degree Days 0 0  
Month to date cooling degree days 0  
Year to date cooling degree days 0  
Moisture  
Dew Point 13 °F    
Average Humidity 57    
Maximum Humidity 85    
Minimum Humidity 30    
Precipitation  
Precipitation 0.00 in 0.01 in 0.21 in (1956)
Month to date precipitation 0.16  
Year to date precipitation 0.16  
Snow  
Snow 0.00 in 0.20 in 2.10 in (1943)
Month to date snowfall 3.0  
Since 1 July snowfall 16.5  
Snow Depth -    
Sea Level Pressure  
Sea Level Pressure 30.37 in    
Wind  
Wind Speed 5 mph (WSW)    
Max Wind Speed 15 mph    
Max Gust Speed 20 mph    
Visibility 10 miles    
Events      
T = Trace of Precipitation, MM = Missing Value Source: NWS Daily Summary

Daily Weather History Graph

Daily Weather History Graph

Search for Another Location

Airport:

Trip Planner

Search our weather history database for the weather conditions in past years. The results will help you decide how hot, cold, wet, or windy it might be!

Date:

Astronomy

Jan. 17, 2013 Rise Set
Actual Time 7:14 AM MST 5:02 PM MST
Civil Twilight 6:45 AM MST 5:31 PM MST
Nautical Twilight 6:12 AM MST 6:04 PM MST
Astronomical Twilight 5:40 AM MST 6:36 PM MST
Moon 10:26 AM MST (1/17) 11:52 PM MST (1/17)
Length of Visible Light 10h 46m
Length of Day
9h 48m
Waxing Crescent, 38% of the Moon is Illuminated
Jan 17
Waxing Crescent
Jan 18
First Quarter
Jan 26
Full
Feb 3
Last Quarter
Feb 10
New

Hourly Weather History & Observations

Time (MST) Temp. Windchill Dew Point Humidity Pressure Visibility Wind Dir Wind Speed Gust Speed Precip Events Conditions
12:14 AM 20.3 °F - 10.4 °F 66% 30.38 in 10.0 mi Calm Calm - N/A   Clear
12:34 AM 17.8 °F - 10.8 °F 74% 30.38 in 10.0 mi Calm Calm - N/A   Clear
12:54 AM 17.1 °F - 10.2 °F 75% 30.38 in 10.0 mi Calm Calm - N/A   Clear
1:14 AM 16.2 °F - 9.1 °F 74% 30.38 in 10.0 mi Calm Calm - N/A   Clear
1:34 AM 19.6 °F - 11.1 °F 70% 30.39 in 10.0 mi Calm Calm - N/A   Clear
1:54 AM 21.0 °F 14.6 °F 11.1 °F 66% 30.39 in 10.0 mi SSW 4.6 mph - N/A   Clear
2:34 AM 20.8 °F 13.2 °F 11.1 °F 66% 30.40 in 10.0 mi WSW 5.8 mph - N/A   Clear
2:54 AM 20.3 °F 11.5 °F 12.2 °F 71% 30.40 in 10.0 mi West 6.9 mph - N/A   Clear
3:14 AM 21.2 °F 12.6 °F 12.9 °F 70% 30.39 in 10.0 mi West 6.9 mph - N/A   Clear
3:34 AM 21.7 °F 12.3 °F 14.2 °F 73% 30.39 in 10.0 mi WSW 8.1 mph - N/A   Clear
3:54 AM 19.4 °F 11.5 °F 13.1 °F 76% 30.39 in 10.0 mi West 5.8 mph - N/A   Clear
4:14 AM 19.6 °F 10.6 °F 13.8 °F 78% 30.39 in 10.0 mi West 6.9 mph - N/A   Clear
4:34 AM 19.2 °F 10.2 °F 13.6 °F 79% 30.39 in 10.0 mi West 6.9 mph - N/A   Clear
4:54 AM 19.2 °F 11.3 °F 13.6 °F 79% 30.39 in 10.0 mi West 5.8 mph - N/A   Clear
5:14 AM 19.4 °F 11.5 °F 13.6 °F 78% 30.39 in 10.0 mi West 5.8 mph - N/A   Clear
5:34 AM 19.2 °F 12.5 °F 13.8 °F 80% 30.40 in 10.0 mi West 4.6 mph - N/A   Clear
5:54 AM 16.3 °F 7.8 °F 12.6 °F 85% 30.40 in 10.0 mi West 5.8 mph - N/A   Clear
6:14 AM 16.9 °F 7.4 °F 12.2 °F 82% 30.40 in 10.0 mi West 6.9 mph - N/A   Clear
6:34 AM 16.0 °F 7.4 °F 11.5 °F 82% 30.41 in 10.0 mi West 5.8 mph - N/A   Clear
6:54 AM 17.4 °F 9.1 °F 12.7 °F 82% 30.41 in 10.0 mi West 5.8 mph - N/A   Clear
7:14 AM 18.3 °F 11.5 °F 11.8 °F 76% 30.41 in 10.0 mi West 4.6 mph - N/A   Clear
7:34 AM 20.7 °F 13.0 °F 13.5 °F 74% 30.41 in 10.0 mi West 5.8 mph - N/A   Clear
7:54 AM 23.0 °F 15.8 °F 14.9 °F 71% 30.42 in 10.0 mi West 5.8 mph - N/A   Clear
8:14 AM 27.0 °F 21.6 °F 18.3 °F 70% 30.43 in 10.0 mi West 4.6 mph - N/A   Clear
8:34 AM 31.6 °F 28.3 °F 18.7 °F 59% 30.45 in 10.0 mi WSW 3.5 mph - N/A   Clear
8:54 AM 33.3 °F 28.9 °F 18.0 °F 53% 30.46 in 10.0 mi WSW 4.6 mph - N/A   Clear
9:14 AM 34.7 °F 28.8 °F 14.9 °F 44% 30.46 in 10.0 mi SW 6.9 mph - N/A   Clear
9:34 AM 36.1 °F 29.3 °F 13.3 °F 39% 30.46 in 10.0 mi SW 9.2 mph - N/A   Clear
9:54 AM 37.8 °F 30.2 °F 12.2 °F 35% 30.46 in 10.0 mi SSW 11.5 mph 16.1 mph N/A   Clear
10:14 AM 38.3 °F 31.4 °F 12.0 °F 34% 30.45 in 10.0 mi SSW 10.4 mph - N/A   Clear
10:34 AM 38.8 °F 32.1 °F 12.7 °F 34% 30.45 in 10.0 mi SSW 10.4 mph 16.1 mph N/A   Clear
10:54 AM 39.6 °F 31.7 °F 12.7 °F 33% 30.44 in 10.0 mi South 13.8 mph 17.3 mph N/A   Clear
11:14 AM 40.1 °F 33.2 °F 14.2 °F 35% 30.43 in 10.0 mi South 11.5 mph 18.4 mph N/A   Clear
11:34 AM 40.6 °F 33.4 °F 15.1 °F 35% 30.42 in 10.0 mi South 12.7 mph 19.6 mph N/A   Clear
11:54 AM 41.4 °F 34.7 °F 14.9 °F 34% 30.40 in 10.0 mi South 11.5 mph 17.3 mph N/A   Clear
12:14 PM 41.7 °F 36.1 °F 14.7 °F 34% 30.39 in 10.0 mi SW 9.2 mph 17.3 mph N/A   Clear
12:34 PM 41.9 °F 35.4 °F 15.1 °F 34% 30.38 in 10.0 mi SSW 11.5 mph 18.4 mph N/A   Clear
12:54 PM 42.4 °F 37.5 °F 14.7 °F 33% 30.37 in 10.0 mi SSW 8.1 mph 18.4 mph N/A   Clear
1:14 PM 43.2 °F 39.0 °F 14.7 °F 32% 30.36 in 10.0 mi SSE 6.9 mph 17.3 mph N/A   Clear
1:34 PM 43.5 °F 39.4 °F 14.7 °F 31% 30.35 in 10.0 mi South 6.9 mph - N/A   Clear
1:54 PM 43.9 °F 40.5 °F 14.5 °F 31% 30.35 in 10.0 mi South 5.8 mph - N/A   Clear
2:14 PM 44.1 °F 37.1 °F 14.5 °F 30% 30.34 in 10.0 mi SSW 15.0 mph 18.4 mph N/A   Clear
2:34 PM 44.2 °F 38.4 °F 14.5 °F 30% 30.34 in 10.0 mi South 11.5 mph 19.6 mph N/A   Clear
2:54 PM 43.7 °F 38.6 °F 14.4 °F 31% 30.34 in 10.0 mi South 9.2 mph 17.3 mph N/A   Clear
3:14 PM 43.5 °F 39.4 °F 14.4 °F 31% 30.34 in 10.0 mi SSW 6.9 mph 17.3 mph N/A   Clear
3:34 PM 42.6 °F 35.9 °F 14.4 °F 32% 30.34 in 10.0 mi SSW 12.7 mph 18.4 mph N/A   Clear
3:54 PM 42.1 °F 35.2 °F 14.4 °F 33% 30.34 in 10.0 mi SSW 12.7 mph 17.3 mph N/A   Clear
4:14 PM 40.5 °F 33.2 °F 14.5 °F 35% 30.34 in 10.0 mi SSW 12.7 mph 17.3 mph N/A   Clear
4:34 PM 37.9 °F 33.5 °F 13.8 °F 37% 30.34 in 10.0 mi South 5.8 mph - N/A   Clear
4:54 PM 33.8 °F 28.6 °F 13.3 °F 43% 30.34 in 10.0 mi South 5.8 mph - N/A   Clear
5:14 PM 32.2 °F 25.0 °F 13.1 °F 45% 30.33 in 10.0 mi SSW 8.1 mph - N/A   Clear
5:34 PM 28.0 °F 22.8 °F 12.4 °F 52% 30.33 in 10.0 mi SSW 4.6 mph - N/A   Clear
5:54 PM 30.0 °F 25.2 °F 13.1 °F 49% 30.33 in 10.0 mi SW 4.6 mph - N/A   Clear
6:14 PM 28.2 °F 21.0 °F 13.1 °F 53% 30.33 in 10.0 mi WSW 6.9 mph - N/A   Clear
6:34 PM 27.3 °F 20.9 °F 13.5 °F 56% 30.33 in 10.0 mi WSW 5.8 mph - N/A   Clear
6:54 PM 28.2 °F 22.0 °F 14.0 °F 55% 30.33 in 10.0 mi WSW 5.8 mph - N/A   Clear
7:14 PM 25.3 °F 17.6 °F 12.7 °F 59% 30.33 in 10.0 mi West 6.9 mph - N/A   Clear
7:54 PM 23.2 °F 15.0 °F 12.7 °F 64% 30.32 in 10.0 mi West 6.9 mph - N/A   Clear
8:14 PM 23.4 °F 15.2 °F 13.5 °F 66% 30.32 in 10.0 mi West 6.9 mph - N/A   Clear
8:34 PM 21.2 °F 13.6 °F 12.4 °F 69% 30.31 in 10.0 mi West 5.8 mph - N/A   Clear
8:54 PM 20.5 °F 12.8 °F 12.2 °F 70% 30.30 in 10.0 mi West 5.8 mph - N/A   Clear
9:14 PM 21.2 °F 12.6 °F 12.6 °F 69% 30.30 in 10.0 mi WNW 6.9 mph - N/A   Clear
9:34 PM 22.5 °F 13.2 °F 14.0 °F 70% 30.29 in 10.0 mi WNW 8.1 mph - N/A   Clear
9:54 PM 23.2 °F 14.1 °F 14.0 °F 68% 30.28 in 10.0 mi West 8.1 mph - N/A   Clear
10:14 PM 23.7 °F 16.6 °F 14.5 °F 68% 30.28 in 10.0 mi WNW 5.8 mph - N/A   Clear
10:34 PM 20.7 °F 13.0 °F 12.6 °F 71% 30.27 in 10.0 mi WNW 5.8 mph - N/A   Clear
10:54 PM 20.7 °F 14.2 °F 12.6 °F 71% 30.26 in 10.0 mi West 4.6 mph - N/A   Clear
11:14 PM 18.9 °F 12.1 °F 12.0 °F 75% 30.26 in 10.0 mi NW 4.6 mph - N/A   Clear
11:34 PM 18.0 °F 9.8 °F 11.1 °F 75% 30.25 in 10.0 mi WNW 5.8 mph - N/A   Clear
11:54 PM 18.7 °F 10.6 °F 11.8 °F 75% 30.24 in 10.0 mi WNW 5.8 mph - N/A   Clear